EW6659 Weather Reports


Display with metric or nautical units.
time (UTC)temp
F
wind
direction
speed
MPH
gust
MPH
rain 1hr
in
rain 24hr
in
rain mn
in
humidity
%
barometer
mb
20260506231519 46 255 0.0 0.0 0.00 0.00 0.00 1 1008.4
20260506230014 46 255 0.0 0.0 0.00 0.00 0.00 1 1008.5
20260506224510 47 255 0.0 0.0 0.00 0.00 0.00 1 1008.5
20260506223005 47 255 0.0 0.0 0.00 0.00 0.00 1 1008.8
20260506221500 47 284 0.0 0.0 0.00 0.00 0.00 1 1009.0
20260506220057 47 340 0.0 0.0 0.00 0.00 0.00 1 1008.8
20260506214552 47 322 0.0 0.0 0.00 0.00 0.00 1 1008.6
20260506213048 47 293 0.0 0.0 0.00 0.00 0.00 1 1008.6
20260506211543 47 309 0.0 0.0 0.00 0.00 0.00 1 1008.4
20260506210038 46 332 0.0 2.0 0.00 0.00 0.00 1 1008.4
20260506204535 46 322 0.0 0.0 0.00 0.00 0.00 1 1008.1
20260506203030 46 320 0.0 0.0 0.00 0.00 0.00 1 1007.9
20260506201539 46 311 0.0 0.0 0.00 0.00 0.00 1 1007.7
20260506200026 46 333 0.0 0.0 0.00 0.00 0.00 1 1007.8
20260506194517 46 306 0.0 0.0 0.00 0.00 0.00 1 1007.8
20260506193013 46 293 0.0 0.0 0.00 0.00 0.00 1 1007.7
20260506191510 46 234 0.0 1.0 0.00 0.00 0.00 1 1007.5
20260506190003 46 23 0.0 0.0 0.00 0.00 0.00 1 1007.4
20260506184603 46 335 0.0 6.0 0.00 0.00 0.00 1 1007.4
20260506183055 47 319 0.0 0.0 0.00 0.00 0.00 1 1007.0
20260506181551 47 316 0.0 0.0 0.00 0.00 0.00 1 1006.8
20260506180045 47 46 0.0 0.0 0.00 0.00 0.00 1 1006.7
20260506174541 47 34 0.0 0.0 0.00 0.00 0.00 1 1006.5
20260506173043 47 352 0.0 0.0 0.00 0.00 0.00 1 1006.5
20260506171542 47 277 0.0 0.0 0.00 0.00 0.00 1 1006.5
20260506170026 46 355 0.0 0.0 0.00 0.00 0.00 1 1006.4
20260506164525 46 326 0.0 0.0 0.00 0.00 0.00 1 1006.5
20260506163031 46 304 0.0 0.0 0.00 0.00 0.00 1 1006.6
20260506161513 46 60 0.0 0.0 0.00 0.00 0.00 1 1006.6
20260506160013 46 18 0.0 0.0 0.00 0.00 0.00 1 1006.7
20260506154505 46 55 0.0 0.0 0.00 0.00 0.00 1 1006.7
20260506153101 46 32 0.0 0.0 0.00 0.00 0.00 1 1006.8
20260506151556 46 50 0.0 0.0 0.00 0.00 0.00 1 1006.7
20260506150052 45 50 0.0 0.0 0.00 0.00 0.00 1 1006.4
20260506144547 45 32 0.0 0.0 0.00 0.00 0.00 1 1006.2
20260506143042 45 52 0.0 0.0 0.00 0.00 0.00 1 1006.4
20260506141537 45 349 0.0 0.0 0.00 0.00 0.00 1 1006.4
20260506140039 45 33 0.0 0.0 0.00 0.00 0.00 1 1006.5
20260506134529 45 346 0.0 1.0 0.00 0.00 0.00 1 1006.5
20260506133024 45 305 0.0 0.0 0.00 0.00 0.00 1 1006.6
20260506131522 45 354 0.0 0.0 0.00 0.00 0.00 1 1006.7
20260506130016 45 316 0.0 0.0 0.00 0.00 0.00 1 1006.6
20260506124511 45 37 0.0 0.0 0.00 0.00 0.00 1 1006.5
20260506123007 45 11 0.0 0.0 0.00 0.00 0.00 1 1006.4
20260506121502 45 356 0.0 0.0 0.00 0.00 0.00 1 1006.4
20260506120110 46 357 0.0 0.0 0.00 0.00 0.00 1 1006.4
20260506114609 46 342 0.0 0.0 0.00 0.00 0.00 1 1006.5
20260506113050 46 34 0.0 0.0 0.00 0.00 0.00 1 1006.6
20260506111551 46 303 0.0 0.0 0.00 0.00 0.00 1 1006.8
20260506110042 45 317 0.0 0.0 0.00 0.00 0.00 1 1006.9
20260506104542 45 322 0.0 0.0 0.00 0.00 0.00 1 1006.8
20260506103033 45 20 0.0 0.0 0.00 0.00 0.00 1 1006.5
20260506101528 45 64 0.0 0.0 0.00 0.00 0.00 1 1006.6
20260506100023 45 322 0.0 0.0 0.00 0.00 0.00 1 1006.8
20260506094520 45 42 0.0 0.0 0.00 0.00 0.00 1 1007.1
20260506093023 46 314 0.0 0.0 0.00 0.00 0.00 1 1007.4
20260506091513 46 334 0.0 0.0 0.00 0.00 0.00 1 1007.3
20260506090005 46 340 0.0 1.0 0.00 0.00 0.00 1 1007.5
20260506084503 47 351 0.0 3.0 0.00 0.00 0.00 1 1007.3
20260506083057 48 43 0.0 0.0 0.00 0.00 0.00 1 1007.2
20260506081552 48 311 0.0 0.0 0.00 0.00 0.00 1 1007.4
20260506080104 48 323 0.0 0.0 0.00 0.00 0.00 1 1007.1
20260506073041 48 357 0.0 0.0 0.00 0.00 0.00 1 1006.9
20260506071536 49 45 0.0 0.0 0.00 0.00 0.00 1 1006.7
20260506061519 49 35 0.0 0.0 0.00 0.00 0.00 1 1007.2
20260506044604 49 40 0.0 0.0 0.00 0.00 0.00 1 1008.5
20260506043052 49 54 0.0 0.0 0.00 0.00 0.00 1 1008.4
20260506041602 49 106 0.0 0.0 0.00 0.00 0.00 1 1008.8
20260506040039 49 106 0.0 0.0 0.00 0.00 0.00 1 1008.7
20260506034536 49 106 0.0 0.0 0.00 0.00 0.00 1 1008.5
20260506033034 49 70 0.0 0.0 0.00 0.00 0.00 1 1008.8
20260506031527 49 194 0.0 0.0 0.00 0.00 0.00 1 1008.9
20260506030022 49 81 0.0 0.0 0.00 0.00 0.00 1 1009.0
20260506024517 49 32 0.0 0.0 0.00 0.00 0.00 1 1008.8
20260506023014 50 21 0.0 0.0 0.00 0.00 0.00 1 1008.9
20260506021510 50 344 0.0 0.0 0.00 0.00 0.00 1 1009.1
20260506020005 50 266 0.0 0.0 0.00 0.00 0.00 1 1009.1
20260506014503 50 34 0.0 0.0 0.00 0.00 0.00 1 1008.4
20260506013057 50 40 0.0 0.0 0.00 0.00 0.00 1 1009.0
20260506011552 51 44 0.0 0.0 0.00 0.00 0.00 1 1008.8
20260506010048 52 323 0.0 2.0 0.00 0.00 0.00 26 1008.9
20260506004545 54 342 0.0 9.0 0.00 0.00 0.00 49 1008.2
20260506003039 56 304 0.0 3.0 0.00 0.00 0.00 50 1007.9
20260506001542 57 302 0.0 2.0 0.00 0.00 0.00 50 1007.6
20260506000046 58 303 0.0 14.0 0.00 0.00 0.00 48 1007.5
20260505234525 59 52 0.0 0.0 0.00 0.00 0.00 46 1007.0
20260505233020 60 70 0.0 6.0 0.00 0.00 0.00 48 1006.6